Weather History for Menominee, MI

Change the Weather History Date:

Friday, October 28, 2011

  Actual Average Record
Temperature  
Mean Temperature 35 °F -  
Max Temperature 42 °F 54 °F 71 °F (1966)
Min Temperature 28 °F 37 °F 22 °F (1980)
Degree Days  
Heating Degree Days 30    
Moisture  
Dew Point 30 °F    
Average Humidity 91    
Maximum Humidity 100    
Minimum Humidity 76    
Precipitation  
Precipitation 0.00 in - - ()
Sea Level Pressure  
Sea Level Pressure 30.10 in    
Wind  
Wind Speed 1 mph (WNW)    
Max Wind Speed 5 mph    
Max Gust Speed -    
Visibility 10 miles    
Events      
Averages and records for this station are not official NWS values.
T = Trace of Precipitation, MM = Missing Value Source: NWS Daily Summary

Daily Weather History Graph

Daily Weather History Graph

Search for Another Location

Airport:

Trip Planner

Search our weather history database for the weather conditions in past years. The results will help you decide how hot, cold, wet, or windy it might be!

Date:

Astronomy

Oct. 28, 2011 Rise Set
Actual Time 7:23 AM CDT 5:44 PM CDT
Civil Twilight 6:53 AM CDT 6:14 PM CDT
Nautical Twilight 6:18 AM CDT 6:49 PM CDT
Astronomical Twilight 5:44 AM CDT 7:23 PM CDT
Moon 9:46 AM CDT (10/28) 6:58 PM CDT (10/28)
Length of Visible Light 11h 21m
Length of Day
10h 21m
Waxing Crescent, 5% of the Moon is Illuminated
Oct 28
Waxing Crescent
Nov 2
First Quarter
Nov 10
Full
Nov 18
Last Quarter
Nov 25
New

Hourly Weather History & Observations

Time (CDT) Temp. Windchill Dew Point Humidity Pressure Visibility Wind Dir Wind Speed Gust Speed Precip Events Conditions
12:15 AM 33.8 °F - 30.2 °F 87% 30.11 in 7.0 mi Calm Calm - N/A   Overcast
12:35 AM 33.8 °F - 30.2 °F 87% 30.10 in 9.0 mi Calm Calm - N/A   Overcast
12:55 AM 33.8 °F 30.8 °F 28.4 °F 81% 30.10 in 10.0 mi NNE 3.5 mph - N/A   Mostly Cloudy
1:15 AM 30.2 °F - 28.4 °F 93% 30.10 in 10.0 mi Calm Calm - N/A   Partly Cloudy
1:55 AM 30.2 °F - 28.4 °F 93% 30.10 in 10.0 mi Calm Calm - N/A   Partly Cloudy
2:15 AM 30.2 °F - 30.2 °F 100% 30.10 in 10.0 mi Calm Calm - N/A   Mostly Cloudy
2:35 AM 32.0 °F - 30.2 °F 93% 30.10 in 10.0 mi Calm Calm - N/A   Overcast
2:55 AM 33.8 °F 30.8 °F 30.2 °F 87% 30.10 in 10.0 mi West 3.5 mph - N/A   Overcast
3:15 AM 33.8 °F - 30.2 °F 87% 30.09 in 10.0 mi Calm Calm - N/A   Scattered Clouds
3:35 AM 33.8 °F - 30.2 °F 87% 30.10 in 10.0 mi Calm Calm - N/A   Clear
3:55 AM 33.8 °F 29.6 °F 30.2 °F 87% 30.10 in 10.0 mi WSW 4.6 mph - N/A   Clear
4:15 AM 30.2 °F 26.7 °F 28.4 °F 93% 30.10 in 8.0 mi WSW 3.5 mph - N/A   Clear
5:15 AM 30.2 °F - 28.4 °F 93% 30.11 in 10.0 mi Calm Calm - N/A   Clear
5:35 AM 30.2 °F - 28.4 °F 93% 30.11 in 10.0 mi Calm Calm - N/A   Clear
6:15 AM 28.4 °F 24.6 °F 28.4 °F 100% 30.11 in 10.0 mi WNW 3.5 mph - N/A   Clear
6:35 AM 28.4 °F 24.6 °F 28.4 °F 100% 30.11 in 10.0 mi WNW 3.5 mph - N/A   Mostly Cloudy
6:55 AM 30.2 °F 26.7 °F 28.4 °F 93% 30.11 in 10.0 mi WNW 3.5 mph - N/A   Mostly Cloudy
7:15 AM 28.4 °F - 28.4 °F 100% 30.12 in 10.0 mi Calm Calm - N/A   Partly Cloudy
7:35 AM 28.4 °F - 26.6 °F 93% 30.12 in 10.0 mi Calm Calm - N/A   Clear
7:55 AM 28.4 °F - 26.6 °F 93% 30.12 in 10.0 mi Calm Calm - N/A   Clear
8:15 AM 28.4 °F - 26.6 °F 93% 30.12 in 10.0 mi Calm Calm - N/A   Clear
8:55 AM 30.2 °F - 30.2 °F 100% 30.13 in 10.0 mi Calm Calm - N/A   Mostly Cloudy
9:15 AM 33.8 °F - 30.2 °F 87% 30.13 in 10.0 mi Calm Calm - N/A   Overcast
9:35 AM 35.6 °F 32.8 °F 33.8 °F 93% 30.12 in 10.0 mi West 3.5 mph - N/A   Overcast
11:15 PM 42.8 °F 41.1 °F 35.6 °F 76% 29.99 in 10.0 mi West 3.5 mph - N/A   Overcast
11:35 PM 42.8 °F 41.1 °F 35.6 °F 76% 29.99 in 10.0 mi WNW 3.5 mph - N/A   Overcast
11:55 PM 41.0 °F - 35.6 °F 81% 29.98 in 10.0 mi Calm Calm - N/A   Overcast